,,Stat5,,Stat1,,Stat2,,Stat3,,Stat4,,Wind1,,Wind1,
time,status,PA1M_AVG,status,PR1M_SUM,status,RH1M_AVG,status,SR1M_AVG,status,TA1M_AVG,status,W1dAve1m,status,W1sAve1m,
2000-08-04, 00:00:00,VALID,917.784,VALID,0,VALID,98.5811,VALID,-0.0169808,VALID,19.5118,VALID,184,VALID,0,
2000-08-04, 00:01:00,VALID,917.781,VALID,0,VALID,98.5684,VALID,-0.0339617,VALID,19.5158,VALID,293,VALID,0,
2000-08-04, 00:02:00,VALID,917.771,VALID,0,VALID,98.5786,VALID,-0.0339617,VALID,19.5193,VALID,317,VALID,0,
2000-08-04, 00:03:00,VALID,917.776,VALID,0,VALID,98.585,VALID,-0.0169808,VALID,19.5059,VALID,317,VALID,0,
2000-08-04, 00:04:00,VALID,917.76,VALID,0,VALID,98.6307,VALID,-0.0169808,VALID,19.532,VALID,317,VALID,0,
2000-08-04, 00:05:00,VALID,917.75,VALID,0,VALID,98.7274,VALID,-0.0169808,VALID,19.5767,VALID,317,VALID,0,
2000-08-04, 00:06:00,VALID,917.726,VALID,0,VALID,98.7528,VALID,-0.0339617,VALID,19.6155,VALID,317,VALID,0,
2000-08-04, 00:07:00,VALID,917.719,VALID,0,VALID,98.7668,VALID,-0.0339617,VALID,19.6418,VALID,317,VALID,0,
2000-08-04, 00:08:00,VALID,917.7,VALID,0,VALID,98.7859,VALID,-0.0169808,VALID,19.6706,VALID,316,VALID,0,
2000-08-04, 00:09:00,VALID,917.68,VALID,0,VALID,98.7846,VALID,-0.0169808,VALID,19.6938,VALID,277,VALID,0,
2000-08-04, 00:10:00,VALID,917.666,VALID,0,VALID,98.7859,VALID,-0.0509425,VALID,19.7064,VALID,250,VALID,0,
2000-08-04, 00:11:00,VALID,917.664,VALID,0,VALID,98.7541,VALID,-0.0339617,VALID,19.7124,VALID,249,VALID,0,
2000-08-04, 00:12:00,VALID,917.663,VALID,0,VALID,98.7121,VALID,-0.0509425,VALID,19.7256,VALID,249,VALID,0,
2000-08-04, 00:13:00,VALID,917.652,VALID,0,VALID,98.6816,VALID,-0.0339617,VALID,19.738,VALID,249,VALID,0,
2000-08-04, 00:14:00,VALID,917.665,VALID,0,VALID,98.6384,VALID,-0.0509425,VALID,19.7487,VALID,245,VALID,0,
2000-08-04, 00:15:00,VALID,917.661,VALID,0,VALID,98.6091,VALID,-0.0339617,VALID,19.7417,VALID,244,VALID,0,
2000-08-04, 00:16:00,VALID,917.671,VALID,0,VALID,98.5506,VALID,-0.0679233,VALID,19.7355,VALID,199,VALID,0,
2000-08-04, 00:17:00,VALID,917.655,VALID,0,VALID,98.4298,VALID,-0.0339617,VALID,19.7064,VALID,197,VALID,0,
2000-08-04, 00:18:00,VALID,917.639,VALID,0,VALID,98.3879,VALID,-0.0339617,VALID,19.6938,VALID,197,VALID,0,
2000-08-04, 00:19:00,VALID,917.638,VALID,0,VALID,98.3764,VALID,0,VALID,19.69,VALID,197,VALID,0,
2000-08-04, 00:20:00,VALID,917.616,VALID,0,VALID,98.3624,VALID,-0.0509425,VALID,19.6808,VALID,197,VALID,0,
2000-08-04, 00:21:00,VALID,917.6,VALID,0,VALID,98.3039,VALID,0,VALID,19.6577,VALID,197,VALID,0,
2000-08-04, 00:22:00,VALID,917.56,VALID,0,VALID,98.1335,VALID,0,VALID,19.5986,VALID,197,VALID,0,
2000-08-04, 00:23:00,VALID,917.515,VALID,0,VALID,98.0979,VALID,0,VALID,19.5869,VALID,197,VALID,0,
2000-08-04, 00:24:00,VALID,917.493,VALID,0,VALID,98.0534,VALID,-0.0169808,VALID,19.5673,VALID,184,VALID,0,
2000-08-04, 00:25:00,VALID,917.456,VALID,0,VALID,98.0687,VALID,-0.0339617,VALID,19.5509,VALID,177,VALID,0,
2000-08-04, 00:26:00,VALID,917.438,VALID,0,VALID,98.0878,VALID,-0.0169808,VALID,19.5449,VALID,138,VALID,0,
2000-08-04, 00:27:00,VALID,917.426,VALID,0,VALID,98.1539,VALID,-0.0339617,VALID,19.5384,VALID,119,VALID,0,
2000-08-04, 00:28:00,VALID,917.421,VALID,0,VALID,98.2861,VALID,-0.0169808,VALID,19.564,VALID,119,VALID,0,
2000-08-04, 00:29:00,VALID,917.408,VALID,0,VALID,98.3459,VALID,-0.0509425,VALID,19.5769,VALID,114,VALID,0,
2000-08-04, 00:30:00,VALID,917.404,VALID,0,VALID,98.2683,VALID,-0.0169808,VALID,19.5446,VALID,109,VALID,0,
2000-08-04, 00:31:00,VALID,917.401,VALID,0,VALID,98.3497,VALID,-0.0509425,VALID,19.5573,VALID,93,VALID,0,
2000-08-04, 00:32:00,VALID,917.397,VALID,0,VALID,98.4438,VALID,-0.0169808,VALID,19.5705,VALID,89,VALID,0,
2000-08-04, 00:33:00,VALID,917.387,VALID,0,VALID,98.5048,VALID,-0.0339617,VALID,19.5772,VALID,89,VALID,0,
2000-08-04, 00:34:00,VALID,917.401,VALID,0,VALID,98.5519,VALID,0,VALID,19.5802,VALID,89,VALID,0,
2000-08-04, 00:35:00,VALID,917.383,VALID,0,VALID,98.6129,VALID,0,VALID,19.5861,VALID,89,VALID,0,
2000-08-04, 00:36:00,VALID,917.372,VALID,0,VALID,98.6447,VALID,-0.0509425,VALID,19.5901,VALID,89,VALID,0,
2000-08-04, 00:37:00,VALID,917.363,VALID,0,VALID,98.6346,VALID,-0.0849042,VALID,19.5772,VALID,89,VALID,0,
2000-08-04, 00:38:00,VALID,917.359,VALID,0,VALID,98.6485,VALID,-0.0169808,VALID,19.5702,VALID,89,VALID,0,
2000-08-04, 00:39:00,VALID,917.333,VALID,0,VALID,98.6905,VALID,-0.0339617,VALID,19.5802,VALID,104,VALID,0,
2000-08-04, 00:40:00,VALID,917.298,VALID,0,VALID,98.6994,VALID,-0.0169808,VALID,19.5901,VALID,140,VALID,0,
2000-08-04, 00:41:00,VALID,917.287,VALID,0,VALID,98.7147,VALID,0,VALID,19.576,VALID,138,VALID,0,
2000-08-04, 00:42:00,VALID,917.285,VALID,0,VALID,98.7096,VALID,-0.0169808,VALID,19.5861,VALID,138,VALID,0,
2000-08-04, 00:43:00,VALID,917.268,VALID,0,VALID,98.7159,VALID,0,VALID,19.606,VALID,138,VALID,0,
2000-08-04, 00:44:00,VALID,917.26,VALID,0,VALID,98.7121,VALID,-0.0169808,VALID,19.5894,VALID,138,VALID,0,
2000-08-04, 00:45:00,VALID,917.251,VALID,0,VALID,98.7147,VALID,-0.0169808,VALID,19.5958,VALID,138,VALID,0,
2000-08-04, 00:46:00,VALID,917.235,VALID,0,VALID,98.7185,VALID,0,VALID,19.5986,VALID,182,VALID,0,
2000-08-04, 00:47:00,VALID,917.224,VALID,0,VALID,98.7197,VALID,-0.0339617,VALID,19.609,VALID,230,VALID,0,
2000-08-04, 00:48:00,VALID,917.217,VALID,0,VALID,98.6981,VALID,0,VALID,19.6088,VALID,234,VALID,0,
2000-08-04, 00:49:00,VALID,917.199,VALID,0,VALID,98.7019,VALID,0,VALID,19.606,VALID,226,VALID,0,
2000-08-04, 00:50:00,VALID,917.184,VALID,0,VALID,98.7185,VALID,-0.0339617,VALID,19.6125,VALID,226,VALID,0,
2000-08-04, 00:51:00,VALID,917.174,VALID,0,VALID,98.7159,VALID,0,VALID,19.6023,VALID,225,VALID,0,
2000-08-04, 00:52:00,VALID,917.145,VALID,0,VALID,98.6905,VALID,0,VALID,19.5829,VALID,212,VALID,0,
2000-08-04, 00:53:00,VALID,917.117,VALID,0,VALID,98.7108,VALID,0,VALID,19.5794,VALID,180,VALID,0,
2000-08-04, 00:54:00,VALID,917.101,VALID,0,VALID,98.7503,VALID,-0.0169808,VALID,19.5963,VALID,146,VALID,0,
2000-08-04, 00:55:00,VALID,917.074,VALID,0,VALID,98.7846,VALID,0,VALID,19.5829,VALID,134,VALID,0,
2000-08-04, 00:56:00,VALID,917.042,VALID,0,VALID,98.7948,VALID,-0.0169808,VALID,19.5727,VALID,132,VALID,0,
2000-08-04, 00:57:00,VALID,917.029,VALID,0,VALID,98.8024,VALID,-0.0339617,VALID,19.5861,VALID,132,VALID,0,
2000-08-04, 00:58:00,VALID,917.028,VALID,0,VALID,98.8164,VALID,-0.0169808,VALID,19.5896,VALID,132,VALID,0,
2000-08-04, 00:59:00,VALID,917.005,VALID,0,VALID,98.8177,VALID,0,VALID,19.5993,VALID,132,VALID,0,
2000-08-04, 01:00:00,VALID,916.986,VALID,0,VALID,98.81,VALID,0.0169808,VALID,19.5832,VALID,132,VALID,0,
2000-08-04, 01:01:00,VALID,916.971,VALID,0,VALID,98.7719,VALID,0,VALID,19.5799,VALID,132,VALID,0,
2000-08-04, 01:02:00,VALID,916.947,VALID,0,VALID,98.7579,VALID,-0.0169808,VALID,19.567,VALID,138,VALID,0,
2000-08-04, 01:03:00,VALID,916.938,VALID,0,VALID,98.7655,VALID,0,VALID,19.5605,VALID,146,VALID,0,
2000-08-04, 01:04:00,VALID,916.927,VALID,0,VALID,98.8075,VALID,-0.0169808,VALID,19.5571,VALID,146,VALID,0,
2000-08-04, 01:05:00,VALID,916.914,VALID,0,VALID,98.8494,VALID,0,VALID,19.5665,VALID,146,VALID,0,
2000-08-04, 01:06:00,VALID,916.925,VALID,0,VALID,98.8571,VALID,0,VALID,19.5866,VALID,146,VALID,0,
2000-08-04, 01:07:00,VALID,916.925,VALID,0,VALID,98.88,VALID,0,VALID,19.606,VALID,146,VALID,0,
2000-08-04, 01:08:00,VALID,916.932,VALID,0,VALID,98.9016,VALID,-0.0339617,VALID,19.616,VALID,146,VALID,0,
2000-08-04, 01:09:00,VALID,916.92,VALID,0,VALID,98.9245,VALID,0,VALID,19.6349,VALID,146,VALID,0,
2000-08-04, 01:10:00,VALID,916.926,VALID,0,VALID,98.9359,VALID,0.0169808,VALID,19.6475,VALID,197,VALID,0,
2000-08-04, 01:11:00,VALID,916.917,VALID,0,VALID,98.9537,VALID,0,VALID,19.6806,VALID,225,VALID,0,
2000-08-04, 01:12:00,VALID,916.924,VALID,0,VALID,98.9296,VALID,-0.0169808,VALID,19.6798,VALID,251,VALID,0,
2000-08-04, 01:13:00,VALID,916.928,VALID,0,VALID,98.8749,VALID,0,VALID,19.6664,VALID,249,VALID,0,
2000-08-04, 01:14:00,VALID,916.918,VALID,0,VALID,98.8024,VALID,0,VALID,19.6547,VALID,241,VALID,0.608141,
2000-08-04, 01:15:00,VALID,916.915,VALID,0,VALID,98.791,VALID,0.0169808,VALID,19.6277,VALID,256,VALID,0.670873,
2000-08-04, 01:16:00,VALID,916.917,VALID,0,VALID,98.8049,VALID,0,VALID,19.6381,VALID,268,VALID,0.710938,
2000-08-04, 01:17:00,VALID,916.917,VALID,0,VALID,98.7948,VALID,0,VALID,19.6252,VALID,282,VALID,0.983036,
2000-08-04, 01:18:00,VALID,916.921,VALID,0,VALID,98.8037,VALID,0,VALID,19.6219,VALID,301,VALID,0.962204,
2000-08-04, 01:19:00,VALID,916.897,VALID,0,VALID,98.8494,VALID,0,VALID,19.6277,VALID,272,VALID,0.792509,
2000-08-04, 01:20:00,VALID,916.869,VALID,0,VALID,98.8838,VALID,-0.0169808,VALID,19.6582,VALID,249,VALID,0.152455,
2000-08-04, 01:21:00,VALID,916.855,VALID,0,VALID,98.9054,VALID,-0.0169808,VALID,19.6801,VALID,20,VALID,0.350361,
2000-08-04, 01:22:00,VALID,916.859,VALID,0,VALID,98.9156,VALID,-0.0169808,VALID,19.6962,VALID,344,VALID,0.0120355,
2000-08-04, 01:23:00,VALID,916.884,VALID,0,VALID,98.9168,VALID,0.0169808,VALID,19.6982,VALID,302,VALID,0.121711,
2000-08-04, 01:24:00,VALID,916.909,VALID,0,VALID,98.9258,VALID,0,VALID,19.7151,VALID,308,VALID,0.172991,
2000-08-04, 01:25:00,VALID,916.936,VALID,0,VALID,98.9245,VALID,0,VALID,19.7253,VALID,292,VALID,0.133013,
2000-08-04, 01:26:00,VALID,916.95,VALID,0,VALID,98.9105,VALID,0,VALID,19.7059,VALID,296,VALID,0.473248,
2000-08-04, 01:27:00,VALID,916.953,VALID,0,VALID,98.9003,VALID,0,VALID,19.6928,VALID,313,VALID,0.590929,
2000-08-04, 01:28:00,VALID,916.961,VALID,0,VALID,98.8927,VALID,0,VALID,19.69,VALID,312,VALID,0.567023,
2000-08-04, 01:29:00,VALID,916.942,VALID,0,VALID,98.8863,VALID,0,VALID,19.6833,VALID,308,VALID,0.502204,
2000-08-04, 01:30:00,VALID,916.937,VALID,0,VALID,98.8723,VALID,-0.0169808,VALID,19.6928,VALID,318,VALID,0.322461,
2000-08-04, 01:31:00,VALID,916.91,VALID,0,VALID,98.8151,VALID,0,VALID,19.7288,VALID,309,VALID,0,
2000-08-04, 01:32:00,VALID,916.877,VALID,0,VALID,98.7172,VALID,-0.0169808,VALID,19.774,VALID,301,VALID,0,
2000-08-04, 01:33:00,VALID,916.862,VALID,0,VALID,98.5557,VALID,0,VALID,19.8093,VALID,299,VALID,0,
2000-08-04, 01:34:00,VALID,916.854,VALID,0,VALID,98.3548,VALID,0,VALID,19.864,VALID,299,VALID,0,
2000-08-04, 01:35:00,VALID,916.842,VALID,0,VALID,98.1234,VALID,0.0169808,VALID,19.8995,VALID,305,VALID,0,
2000-08-04, 01:36:00,VALID,916.829,VALID,0,VALID,97.8131,VALID,0,VALID,19.906,VALID,314,VALID,0,
2000-08-04, 01:37:00,VALID,916.818,VALID,0,VALID,97.6465,VALID,0.0169808,VALID,19.9023,VALID,314,VALID,0,
2000-08-04, 01:38:00,VALID,916.812,VALID,0,VALID,97.6058,VALID,0,VALID,19.9057,VALID,314,VALID,0,
2000-08-04, 01:39:00,VALID,916.776,VALID,0,VALID,97.6567,VALID,-0.0169808,VALID,19.9284,VALID,310,VALID,0,
2000-08-04, 01:40:00,VALID,916.75,VALID,0,VALID,97.5944,VALID,0,VALID,19.9249,VALID,259,VALID,0,
2000-08-04, 01:41:00,VALID,916.741,VALID,0,VALID,97.5931,VALID,0,VALID,19.9321,VALID,166,VALID,0,
2000-08-04, 01:42:00,VALID,916.732,VALID,0,VALID,97.5982,VALID,-0.0509425,VALID,19.9356,VALID,153,VALID,0,
2000-08-04, 01:43:00,VALID,916.717,VALID,0,VALID,97.6427,VALID,-0.0169808,VALID,19.9286,VALID,150,VALID,0,
2000-08-04, 01:44:00,VALID,916.729,VALID,0,VALID,97.7241,VALID,-0.0339617,VALID,19.9358,VALID,108,VALID,0,
2000-08-04, 01:45:00,VALID,916.723,VALID,0,VALID,97.7406,VALID,0,VALID,19.906,VALID,98,VALID,0,
2000-08-04, 01:46:00,VALID,916.725,VALID,0,VALID,97.7025,VALID,0,VALID,19.8608,VALID,104,VALID,0,
2000-08-04, 01:47:00,VALID,916.725,VALID,0,VALID,97.6592,VALID,-0.0339617,VALID,19.8056,VALID,109,VALID,0.825138,
2000-08-04, 01:48:00,VALID,916.729,VALID,0,VALID,97.747,VALID,0,VALID,19.7671,VALID,108,VALID,1.22254,
2000-08-04, 01:49:00,VALID,916.711,VALID,0,VALID,97.8512,VALID,-0.0169808,VALID,19.7412,VALID,112,VALID,1.14103,
2000-08-04, 01:50:00,VALID,916.709,VALID,0,VALID,97.9479,VALID,0,VALID,19.7154,VALID,121,VALID,0.907517,
2000-08-04, 01:51:00,VALID,916.703,VALID,0,VALID,98.0585,VALID,-0.0339617,VALID,19.7189,VALID,123,VALID,1.05777,
2000-08-04, 01:52:00,VALID,916.696,VALID,0,VALID,98.1361,VALID,0,VALID,19.7092,VALID,126,VALID,0.746205,
2000-08-04, 01:53:00,VALID,916.688,VALID,0,VALID,98.1742,VALID,-0.0509425,VALID,19.7221,VALID,129,VALID,0.6875,
2000-08-04, 01:54:00,VALID,916.668,VALID,0,VALID,98.1933,VALID,0,VALID,19.7216,VALID,145,VALID,0.633759,
2000-08-04, 01:55:00,VALID,916.661,VALID,0,VALID,98.2124,VALID,0,VALID,19.7054,VALID,140,VALID,0.667969,
2000-08-04, 01:56:00,VALID,916.659,VALID,0,VALID,98.2353,VALID,-0.0339617,VALID,19.6957,VALID,145,VALID,0.604235,
2000-08-04, 01:57:00,VALID,916.655,VALID,0,VALID,98.2162,VALID,0,VALID,19.6893,VALID,162,VALID,0.496795,
2000-08-04, 01:58:00,VALID,916.637,VALID,0,VALID,98.2137,VALID,0,VALID,19.6632,VALID,162,VALID,0.283203,
2000-08-04, 01:59:00,VALID,916.632,VALID,0,VALID,98.2594,VALID,0.0679233,VALID,19.6664,VALID,148,VALID,0,
2000-08-04, 02:00:00,VALID,916.624,VALID,0,VALID,98.3383,VALID,0.0169808,VALID,19.6798,VALID,110,VALID,0.434755,
2000-08-04, 02:01:00,VALID,916.611,VALID,0,VALID,98.3484,VALID,0.0339617,VALID,19.6667,VALID,100,VALID,0.611903,
2000-08-04, 02:02:00,VALID,916.594,VALID,0,VALID,98.3815,VALID,0,VALID,19.6475,VALID,105,VALID,0.562054,
2000-08-04, 02:03:00,VALID,916.585,VALID,0,VALID,98.3866,VALID,0.0169808,VALID,19.6344,VALID,109,VALID,0.649239,
2000-08-04, 02:04:00,VALID,916.577,VALID,0,VALID,98.4133,VALID,0.0169808,VALID,19.605,VALID,109,VALID,0.364654,
2000-08-04, 02:05:00,VALID,916.597,VALID,0,VALID,98.4336,VALID,0.0169808,VALID,19.5789,VALID,109,VALID,0,
2000-08-04, 02:06:00,VALID,916.63,VALID,0,VALID,98.4731,VALID,0,VALID,19.5735,VALID,106,VALID,0,
2000-08-04, 02:07:00,VALID,916.634,VALID,0,VALID,98.5048,VALID,0,VALID,19.5474,VALID,34,VALID,0,
2000-08-04, 02:08:00,VALID,916.661,VALID,0,VALID,98.5773,VALID,0,VALID,19.5471,VALID,329,VALID,0,
2000-08-04, 02:09:00,VALID,916.687,VALID,0,VALID,98.6473,VALID,0,VALID,19.5571,VALID,319,VALID,0,
2000-08-04, 02:10:00,VALID,916.719,VALID,0,VALID,98.6867,VALID,0,VALID,19.5404,VALID,319,VALID,0,
2000-08-04, 02:11:00,VALID,916.73,VALID,0,VALID,98.7604,VALID,0.0339617,VALID,19.5439,VALID,357,VALID,0,
2000-08-04, 02:12:00,VALID,916.737,VALID,0,VALID,98.7948,VALID,0,VALID,19.5538,VALID,102,VALID,0,
2000-08-04, 02:13:00,VALID,916.744,VALID,0,VALID,98.8507,VALID,0.0169808,VALID,19.5675,VALID,104,VALID,0,
2000-08-04, 02:14:00,VALID,916.749,VALID,0,VALID,98.9105,VALID,0.0169808,VALID,19.5834,VALID,104,VALID,0,
2000-08-04, 02:15:00,VALID,916.734,VALID,0,VALID,98.9232,VALID,0.0169808,VALID,19.5765,VALID,104,VALID,0,
2000-08-04, 02:16:00,VALID,916.75,VALID,0,VALID,98.9397,VALID,0,VALID,19.5665,VALID,102,VALID,0,
2000-08-04, 02:17:00,VALID,916.729,VALID,0,VALID,98.9283,VALID,0.0169808,VALID,19.5571,VALID,91,VALID,0,
2000-08-04, 02:18:00,VALID,916.729,VALID,0,VALID,98.969,VALID,0.0339617,VALID,19.5538,VALID,89,VALID,0,
2000-08-04, 02:19:00,VALID,916.725,VALID,0,VALID,98.9906,VALID,0,VALID,19.5374,VALID,88,VALID,0,
2000-08-04, 02:20:00,VALID,916.714,VALID,0,VALID,99.002,VALID,0.0169808,VALID,19.5317,VALID,86,VALID,0,
2000-08-04, 02:21:00,VALID,916.712,VALID,0,VALID,98.997,VALID,0,VALID,19.5156,VALID,93,VALID,0,
2000-08-04, 02:22:00,VALID,916.695,VALID,0,VALID,99.0097,VALID,0.0509425,VALID,19.483,VALID,98,VALID,0,
2000-08-04, 02:23:00,VALID,916.677,VALID,0,VALID,99.03,VALID,0,VALID,19.4728,VALID,96,VALID,0,
2000-08-04, 02:24:00,VALID,916.678,VALID,0,VALID,99.0682,VALID,0,VALID,19.4671,VALID,87,VALID,0,
2000-08-04, 02:25:00,VALID,916.671,VALID,0,VALID,99.0745,VALID,0,VALID,19.4408,VALID,92,VALID,0,
2000-08-04, 02:26:00,VALID,916.669,VALID,0,VALID,99.1038,VALID,0.0169808,VALID,19.4276,VALID,81,VALID,0,
2000-08-04, 02:27:00,VALID,916.676,VALID,0,VALID,99.1139,VALID,0,VALID,19.4182,VALID,65,VALID,0,
2000-08-04, 02:28:00,VALID,916.675,VALID,0,VALID,99.1457,VALID,0.0169808,VALID,19.4246,VALID,45,VALID,0,
2000-08-04, 02:29:00,VALID,916.689,VALID,0,VALID,99.189,VALID,0,VALID,19.4313,VALID,51,VALID,0,
2000-08-04, 02:30:00,VALID,916.706,VALID,0,VALID,99.2284,VALID,0,VALID,19.4343,VALID,82,VALID,0,
2000-08-04, 02:31:00,VALID,916.711,VALID,0,VALID,99.2525,VALID,0.0169808,VALID,19.4569,VALID,79,VALID,0,
2000-08-04, 02:32:00,VALID,916.716,VALID,0,VALID,99.2754,VALID,0,VALID,19.4669,VALID,80,VALID,0,
2000-08-04, 02:33:00,VALID,916.738,VALID,0,VALID,99.2856,VALID,0,VALID,19.4636,VALID,80,VALID,0,
2000-08-04, 02:34:00,VALID,916.748,VALID,0,VALID,99.3072,VALID,0.0169808,VALID,19.4664,VALID,80,VALID,0,
2000-08-04, 02:35:00,VALID,916.756,VALID,0,VALID,99.3161,VALID,0.0339617,VALID,19.4761,VALID,77,VALID,0,
2000-08-04, 02:36:00,VALID,916.749,VALID,0,VALID,99.3301,VALID,0.0339617,VALID,19.4962,VALID,102,VALID,0,
2000-08-04, 02:37:00,VALID,916.764,VALID,0,VALID,99.3479,VALID,0.0169808,VALID,19.5084,VALID,102,VALID,0,
2000-08-04, 02:38:00,VALID,916.757,VALID,0,VALID,99.3657,VALID,0.0169808,VALID,19.5146,VALID,103,VALID,0,
2000-08-04, 02:39:00,VALID,916.756,VALID,0,VALID,99.3556,VALID,0.0339617,VALID,19.5215,VALID,104,VALID,0,
2000-08-04, 02:40:00,VALID,916.767,VALID,0,VALID,99.3746,VALID,0.0169808,VALID,19.522,VALID,104,VALID,0,
2000-08-04, 02:41:00,VALID,916.763,VALID,0,VALID,99.381,VALID,0.0169808,VALID,19.5282,VALID,104,VALID,0,
2000-08-04, 02:42:00,VALID,916.768,VALID,0,VALID,99.3721,VALID,0,VALID,19.5185,VALID,102,VALID,0,
2000-08-04, 02:43:00,VALID,916.762,VALID,0,VALID,99.3835,VALID,-0.0849042,VALID,19.5265,VALID,105,VALID,0,
2000-08-04, 02:44:00,VALID,916.751,VALID,0,VALID,99.3873,VALID,-0.0849042,VALID,19.5325,VALID,117,VALID,0,
2000-08-04, 02:45:00,VALID,916.758,VALID,0,VALID,99.3886,VALID,-0.118866,VALID,19.5327,VALID,116,VALID,0,
2000-08-04, 02:46:00,VALID,916.748,VALID,0,VALID,99.395,VALID,-0.101885,VALID,19.5364,VALID,98,VALID,0,
2000-08-04, 02:47:00,VALID,916.748,VALID,0,VALID,99.4026,VALID,-0.0679233,VALID,19.5424,VALID,97,VALID,0,
2000-08-04, 02:48:00,VALID,916.763,VALID,0,VALID,99.409,VALID,-0.101885,VALID,19.5456,VALID,98,VALID,0,
2000-08-04, 02:49:00,VALID,916.754,VALID,0,VALID,99.4077,VALID,-0.101885,VALID,19.5456,VALID,98,VALID,0,
2000-08-04, 02:50:00,VALID,916.754,VALID,0,VALID,99.4217,VALID,-0.101885,VALID,19.5295,VALID,98,VALID,0,
2000-08-04, 02:51:00,VALID,916.751,VALID,0,VALID,99.4395,VALID,-0.0679233,VALID,19.5424,VALID,100,VALID,0,
2000-08-04, 02:52:00,VALID,916.742,VALID,0,VALID,99.4344,VALID,-0.0849042,VALID,19.5526,VALID,100,VALID,0,
2000-08-04, 02:53:00,VALID,916.722,VALID,0,VALID,99.4458,VALID,-0.0849042,VALID,19.562,VALID,99,VALID,0.3125,
2000-08-04, 02:54:00,VALID,916.726,VALID,0,VALID,99.4611,VALID,-0.101885,VALID,19.562,VALID,97,VALID,0.97207,
2000-08-04, 02:55:00,VALID,916.705,VALID,0,VALID,99.4649,VALID,-0.0679233,VALID,19.5844,VALID,100,VALID,1.23817,
2000-08-04, 02:56:01,VALID,916.698,VALID,0,VALID,99.4624,VALID,-0.0849042,VALID,19.5677,VALID,94,VALID,1.29244,
2000-08-04, 02:57:00,VALID,916.689,VALID,0,VALID,99.4662,VALID,-0.0679233,VALID,19.5742,VALID,93,VALID,1.03125,
2000-08-04, 02:58:00,VALID,916.668,VALID,0,VALID,99.4687,VALID,0.0509425,VALID,19.5727,VALID,93,VALID,0.727009,
2000-08-04, 02:59:00,VALID,916.679,VALID,0,VALID,99.4751,VALID,0,VALID,19.5697,VALID,93,VALID,0.205929,
2000-08-04, 03:00:00,VALID,916.664,VALID,0,VALID,99.4751,VALID,0.0169808,VALID,19.5596,VALID,94,VALID,1.00971,
2000-08-04, 03:01:00,VALID,916.651,VALID,0,VALID,99.4687,VALID,0,VALID,19.5598,VALID,86,VALID,1.00596,
2000-08-04, 03:02:00,VALID,916.652,VALID,0,VALID,99.4725,VALID,0.0339617,VALID,19.563,VALID,88,VALID,1.00871,
2000-08-04, 03:03:00,VALID,916.628,VALID,0,VALID,99.4891,VALID,0.0339617,VALID,19.5663,VALID,78,VALID,1.09095,
2000-08-04, 03:04:00,VALID,916.634,VALID,0,VALID,99.4827,VALID,0.0339617,VALID,19.5697,VALID,74,VALID,0.799953,
2000-08-04, 03:05:00,VALID,916.639,VALID,0,VALID,99.484,VALID,0.0339617,VALID,19.5566,VALID,59,VALID,0.738064,
2000-08-04, 03:06:00,VALID,916.656,VALID,0,VALID,99.4827,VALID,0.0169808,VALID,19.5531,VALID,81,VALID,0.317845,
2000-08-04, 03:07:01,VALID,916.673,VALID,0,VALID,99.4789,VALID,0.0169808,VALID,19.5501,VALID,100,VALID,0.874599,
2000-08-04, 03:08:00,VALID,916.675,VALID,0,VALID,99.4942,VALID,0.0339617,VALID,19.563,VALID,89,VALID,1.11523,
2000-08-04, 03:09:00,VALID,916.693,VALID,0,VALID,99.4827,VALID,0.0169808,VALID,19.5732,VALID,85,VALID,0.819196,
2000-08-04, 03:10:00,VALID,916.719,VALID,0,VALID,99.5018,VALID,0,VALID,19.5757,VALID,96,VALID,0,
2000-08-04, 03:11:00,VALID,916.719,VALID,0,VALID,99.5069,VALID,0,VALID,19.5789,VALID,96,VALID,0,
2000-08-04, 03:12:00,VALID,916.745,VALID,0,VALID,99.512,VALID,0.0169808,VALID,19.5891,VALID,162,VALID,0.133482,
2000-08-04, 03:13:00,VALID,916.76,VALID,0,VALID,99.5081,VALID,0,VALID,19.5889,VALID,289,VALID,0.159054,
2000-08-04, 03:14:00,VALID,916.76,VALID,0,VALID,99.5031,VALID,0,VALID,19.5859,VALID,298,VALID,0.10114,
2000-08-04, 03:15:01,VALID,916.756,VALID,0,VALID,99.5183,VALID,0,VALID,19.5762,VALID,301,VALID,0,
2000-08-04, 03:16:00,VALID,916.751,VALID,0,VALID,99.512,VALID,0,VALID,19.573,VALID,306,VALID,0,
2000-08-04, 03:17:00,VALID,916.734,VALID,0,VALID,99.5056,VALID,0,VALID,19.5732,VALID,8,VALID,0,
2000-08-04, 03:18:00,VALID,916.72,VALID,0,VALID,99.5196,VALID,0.0169808,VALID,19.5722,VALID,101,VALID,0,
2000-08-04, 03:19:00,VALID,916.709,VALID,0,VALID,99.5145,VALID,0,VALID,19.5765,VALID,106,VALID,0,
2000-08-04, 03:20:00,VALID,916.703,VALID,0,VALID,99.5196,VALID,0.0169808,VALID,19.5794,VALID,101,VALID,0,
2000-08-04, 03:21:00,VALID,916.702,VALID,0,VALID,99.5247,VALID,0.0169808,VALID,19.5929,VALID,100,VALID,0.239583,
2000-08-04, 03:22:00,VALID,916.689,VALID,0,VALID,99.5132,VALID,0.0169808,VALID,19.5762,VALID,97,VALID,1.26855,
2000-08-04, 03:23:00,VALID,916.677,VALID,0,VALID,99.5323,VALID,0,VALID,19.5854,VALID,94,VALID,1.21071,
2000-08-04, 03:24:00,VALID,916.649,VALID,0,VALID,99.5387,VALID,0.0169808,VALID,19.5861,VALID,97,VALID,1.32749,
2000-08-04, 03:25:00,VALID,916.64,VALID,0,VALID,99.5387,VALID,0.0169808,VALID,19.5924,VALID,100,VALID,1.02665,
2000-08-04, 03:26:00,VALID,916.628,VALID,0,VALID,99.5463,VALID,0,VALID,19.5953,VALID,100,VALID,0.866071,
2000-08-04, 03:27:00,VALID,916.607,VALID,0,VALID,99.5437,VALID,0.0169808,VALID,19.6023,VALID,100,VALID,1.19451,
2000-08-04, 03:28:00,VALID,916.591,VALID,0,VALID,99.5476,VALID,0.0169808,VALID,19.5919,VALID,94,VALID,1.0663,
2000-08-04, 03:29:00,VALID,916.566,VALID,0,VALID,99.5348,VALID,-0.0169808,VALID,19.5924,VALID,98,VALID,1.19511,
2000-08-04, 03:30:00,VALID,916.535,VALID,0,VALID,99.5387,VALID,0.0339617,VALID,19.5725,VALID,90,VALID,1.12388,
2000-08-04, 03:31:00,VALID,916.529,VALID,0,VALID,99.5298,VALID,0.0339617,VALID,19.5725,VALID,88,VALID,0.8748,
2000-08-04, 03:32:00,VALID,916.522,VALID,0,VALID,99.5259,VALID,0.0679233,VALID,19.5566,VALID,63,VALID,1.4446,
2000-08-04, 03:33:00,VALID,916.521,VALID,0,VALID,99.5221,VALID,0.0169808,VALID,19.5536,VALID,86,VALID,1.00065,
2000-08-04, 03:34:01,VALID,916.532,VALID,0,VALID,99.5285,VALID,0.0169808,VALID,19.5533,VALID,82,VALID,0.942845,
2000-08-04, 03:35:00,VALID,916.533,VALID,0,VALID,99.5323,VALID,0.0169808,VALID,19.5471,VALID,85,VALID,0.496194,
2000-08-04, 03:36:00,VALID,916.527,VALID,0,VALID,99.5323,VALID,0.0509425,VALID,19.534,VALID,65,VALID,0,
2000-08-04, 03:37:00,VALID,916.513,VALID,0,VALID,99.5247,VALID,0.0509425,VALID,19.5372,VALID,98,VALID,0,
2000-08-04, 03:38:00,VALID,916.498,VALID,0,VALID,99.5399,VALID,0.0339617,VALID,19.5315,VALID,104,VALID,0,
2000-08-04, 03:39:00,VALID,916.492,VALID,0,VALID,99.5514,VALID,0.0169808,VALID,19.5337,VALID,98,VALID,0,
2000-08-04, 03:40:00,VALID,916.478,VALID,0,VALID,99.5298,VALID,0.0339617,VALID,19.534,VALID,84,VALID,0.0801339,
2000-08-04, 03:41:00,VALID,916.471,VALID,0,VALID,99.5348,VALID,0.0169808,VALID,19.5275,VALID,88,VALID,0.936899,
2000-08-04, 03:42:00,VALID,916.464,VALID,0,VALID,99.5412,VALID,0,VALID,19.5379,VALID,90,VALID,0.976351,
2000-08-04, 03:43:00,VALID,916.462,VALID,0,VALID,99.5399,VALID,-0.0849042,VALID,19.5325,VALID,84,VALID,0.500617,